Location: Gloden
(48.4833°N, 15.3167°E)
Time: 13:26:14
(UTC+00:00)

Cosmos 1302 Rocket - Pass Details

Date: 15 December 2019
Orbit: 757 x 776 km, 74.0° (Epoch: 20 January)

Event Time Altitude Azimuth Distance (km) Brightness Sun altitude
Rises 05:17:51 0° 207° (SSW) 3,241 7.2 -13.4°
Reaches altitude 10° 05:20:13 10° 210° (SSW) 2,319 6.4 -13.0°
Maximum altitude 05:25:30 72° 295° (WNW) 819 4.0 -12.2°
Drops below altitude 10° 05:30:48 10° 20° (NNE) 2,334 6.5 -11.4°
Sets 05:33:12 0° 22° (NNE) 3,264 7.3 -11.0°
